TimeEST,TemperatureF,Dew PointF,Humidity,Sea Level PressureIn,VisibilityMPH,Wind Direction,Wind SpeedMPH,Gust SpeedMPH,PrecipitationIn,Events,Conditions,WindDirDegrees,DateUTC
12:15 AM,21.2,19.4,93,30.66,10.0,Calm,Calm,-,N/A,,Clear,0,2012-11-18 05:15:00
12:35 AM,21.2,17.6,86,30.66,9.0,West,3.5,-,N/A,,Clear,260,2012-11-18 05:35:00
12:55 AM,21.2,19.4,93,30.67,10.0,Calm,Calm,-,N/A,,Clear,0,2012-11-18 05:55:00
1:15 AM,23.0,21.2,93,30.67,8.0,Calm,Calm,-,N/A,,Clear,0,2012-11-18 06:15:00
1:35 AM,21.2,17.6,86,30.68,10.0,Calm,Calm,-,N/A,,Clear,0,2012-11-18 06:35:00
1:55 AM,19.4,15.8,86,30.68,9.0,Calm,Calm,-,N/A,,Clear,0,2012-11-18 06:55:00
2:15 AM,19.4,17.6,93,30.68,8.0,Calm,Calm,-,N/A,,Clear,0,2012-11-18 07:15:00
2:55 AM,21.2,19.4,93,30.67,8.0,Calm,Calm,-,N/A,,Clear,0,2012-11-18 07:55:00
3:15 AM,21.2,15.8,80,30.67,9.0,Calm,Calm,-,N/A,,Clear,0,2012-11-18 08:15:00
3:35 AM,23.0,19.4,86,30.67,10.0,Calm,Calm,-,N/A,,Clear,0,2012-11-18 08:35:00
3:55 AM,23.0,23.0,100,30.67,10.0,North,4.6,-,N/A,,Clear,360,2012-11-18 08:55:00
4:15 AM,24.8,21.2,86,30.67,10.0,North,3.5,-,N/A,,Clear,10,2012-11-18 09:15:00
4:35 AM,21.2,19.4,93,30.67,10.0,Calm,Calm,-,N/A,,Clear,0,2012-11-18 09:35:00
4:55 AM,19.4,17.6,93,30.69,10.0,Calm,Calm,-,N/A,,Clear,0,2012-11-18 09:55:00
5:15 AM,21.2,19.4,93,30.68,10.0,Calm,Calm,-,N/A,,Clear,0,2012-11-18 10:15:00
5:35 AM,19.4,19.4,100,30.69,10.0,West,3.5,-,N/A,,Clear,270,2012-11-18 10:35:00
5:55 AM,19.4,17.6,93,30.70,10.0,Calm,Calm,-,N/A,,Clear,0,2012-11-18 10:55:00
6:15 AM,19.4,17.6,93,30.70,10.0,Calm,Calm,-,N/A,,Clear,0,2012-11-18 11:15:00
6:35 AM,19.4,14.0,80,30.71,10.0,Calm,Calm,-,N/A,,Clear,0,2012-11-18 11:35:00
6:55 AM,19.4,15.8,86,30.72,10.0,Calm,Calm,-,N/A,,Clear,0,2012-11-18 11:55:00
7:15 AM,19.4,17.6,93,30.72,10.0,Calm,Calm,-,N/A,,Clear,0,2012-11-18 12:15:00
7:35 AM,24.8,19.4,80,30.73,10.0,Calm,Calm,-,N/A,,Clear,0,2012-11-18 12:35:00
7:55 AM,28.4,23.0,80,30.74,10.0,NNE,4.6,-,N/A,,Clear,20,2012-11-18 12:55:00
8:15 AM,30.2,17.6,60,30.74,10.0,North,4.6,-,N/A,,Clear,360,2012-11-18 13:15:00
8:35 AM,32.0,26.6,80,30.74,10.0,North,6.9,-,N/A,,Clear,360,2012-11-18 13:35:00
8:55 AM,33.8,24.8,70,30.74,10.0,North,5.8,-,N/A,,Clear,10,2012-11-18 13:55:00
9:15 AM,35.6,15.8,44,30.74,10.0,NNE,6.9,-,N/A,,Clear,20,2012-11-18 14:15:00
9:35 AM,37.4,17.6,45,30.74,10.0,NE,6.9,-,N/A,,Clear,40,2012-11-18 14:35:00
9:55 AM,37.4,15.8,41,30.74,10.0,North,8.1,-,N/A,,Clear,10,2012-11-18 14:55:00
10:15 AM,39.2,15.8,39,30.74,10.0,North,6.9,-,N/A,,Clear,10,2012-11-18 15:15:00
10:35 AM,39.2,17.6,42,30.73,10.0,NE,9.2,-,N/A,,Clear,50,2012-11-18 15:35:00
10:55 AM,41.0,15.8,36,30.72,10.0,ENE,8.1,-,N/A,,Clear,60,2012-11-18 15:55:00
11:15 AM,41.0,15.8,36,30.71,10.0,NNE,8.1,-,N/A,,Clear,30,2012-11-18 16:15:00
11:35 AM,42.8,17.6,36,30.70,10.0,NE,9.2,-,N/A,,Clear,50,2012-11-18 16:35:00
11:55 AM,42.8,15.8,34,30.69,10.0,ENE,8.1,-,N/A,,Clear,60,2012-11-18 16:55:00
12:15 PM,42.8,17.6,36,30.69,10.0,NE,8.1,-,N/A,,Clear,50,2012-11-18 17:15:00
12:35 PM,42.8,17.6,36,30.68,10.0,NNE,6.9,-,N/A,,Clear,20,2012-11-18 17:35:00
12:55 PM,42.8,19.4,39,30.67,10.0,ENE,3.5,-,N/A,,Clear,70,2012-11-18 17:55:00
1:15 PM,44.6,17.6,34,30.67,10.0,ENE,6.9,-,N/A,,Clear,60,2012-11-18 18:15:00
1:35 PM,44.6,15.8,31,30.66,10.0,NE,5.8,-,N/A,,Clear,50,2012-11-18 18:35:00
1:55 PM,44.6,14.0,29,30.66,10.0,NE,6.9,-,N/A,,Clear,40,2012-11-18 18:55:00
2:15 PM,44.6,17.6,34,30.66,10.0,East,5.8,-,N/A,,Clear,80,2012-11-18 19:15:00
2:35 PM,42.8,14.0,31,30.67,10.0,NE,4.6,-,N/A,,Clear,50,2012-11-18 19:35:00
2:55 PM,44.6,14.0,29,30.67,10.0,East,3.5,-,N/A,,Clear,100,2012-11-18 19:55:00
3:15 PM,42.8,15.8,34,30.67,10.0,ESE,4.6,-,N/A,,Clear,110,2012-11-18 20:15:00
3:35 PM,42.8,14.0,31,30.67,10.0,SE,3.5,-,N/A,,Clear,130,2012-11-18 20:35:00
3:55 PM,39.2,17.6,42,30.67,10.0,SSE,3.5,-,N/A,,Clear,160,2012-11-18 20:55:00
4:15 PM,39.2,17.6,42,30.67,10.0,Calm,Calm,-,N/A,,Clear,0,2012-11-18 21:15:00
4:35 PM,33.8,15.8,48,30.67,10.0,Calm,Calm,-,N/A,,Clear,0,2012-11-18 21:35:00
4:55 PM,30.2,17.6,60,30.67,10.0,Calm,Calm,-,N/A,,Clear,0,2012-11-18 21:55:00
5:15 PM,28.4,17.6,64,30.68,10.0,Calm,Calm,-,N/A,,Clear,0,2012-11-18 22:15:00
5:35 PM,26.6,21.2,80,30.68,10.0,Calm,Calm,-,N/A,,Clear,0,2012-11-18 22:35:00
5:55 PM,26.6,21.2,80,30.68,10.0,Calm,Calm,-,N/A,,Clear,0,2012-11-18 22:55:00
6:15 PM,26.6,17.6,69,30.68,10.0,Calm,Calm,-,N/A,,Clear,0,2012-11-18 23:15:00
6:35 PM,24.8,15.8,69,30.67,10.0,Calm,Calm,-,N/A,,Clear,0,2012-11-18 23:35:00
6:55 PM,24.8,12.2,59,30.67,10.0,Calm,Calm,-,N/A,,Clear,0,2012-11-18 23:55:00
7:15 PM,24.8,15.8,69,30.67,10.0,Calm,Calm,-,N/A,,Clear,0,2012-11-19 00:15:00
7:35 PM,21.2,17.6,86,30.66,10.0,Calm,Calm,-,N/A,,Clear,0,2012-11-19 00:35:00
7:55 PM,21.2,17.6,86,30.66,10.0,WSW,3.5,-,N/A,,Clear,250,2012-11-19 00:55:00
8:15 PM,21.2,17.6,86,30.67,10.0,Calm,Calm,-,N/A,,Clear,0,2012-11-19 01:15:00
8:35 PM,21.2,15.8,80,30.66,10.0,WSW,3.5,-,N/A,,Clear,250,2012-11-19 01:35:00
8:55 PM,19.4,12.2,74,30.66,10.0,WSW,4.6,-,N/A,,Clear,250,2012-11-19 01:55:00
9:15 PM,21.2,17.6,86,30.66,10.0,Calm,Calm,-,N/A,,Clear,0,2012-11-19 02:15:00
9:35 PM,19.4,19.4,100,30.65,10.0,Calm,Calm,-,N/A,,Clear,0,2012-11-19 02:35:00
9:55 PM,19.4,15.8,86,30.65,10.0,Calm,Calm,-,N/A,,Clear,0,2012-11-19 02:55:00
10:15 PM,19.4,14.0,80,30.65,10.0,Calm,Calm,-,N/A,,Clear,0,2012-11-19 03:15:00
10:35 PM,19.4,17.6,93,30.64,10.0,Calm,Calm,-,N/A,,Clear,0,2012-11-19 03:35:00
10:55 PM,21.2,17.6,86,30.64,10.0,Calm,Calm,-,N/A,,Clear,0,2012-11-19 03:55:00
11:15 PM,21.2,14.0,74,30.64,10.0,Calm,Calm,-,N/A,,Clear,0,2012-11-19 04:15:00
11:35 PM,19.4,15.8,86,30.64,10.0,West,3.5,-,N/A,,Clear,280,2012-11-19 04:35:00